sat.trackr.live / text

‹ back to catalog

STARLINK-34212

NORAD 64139 · 2025-111S

PAYLOAD ACTIVE UNKNOWN

§ Identity

Operator
Country
US
Launch date
2025-05-24
Launch site
AFETR
Launch vehicle
Mass (kg)
RCS (m²)

Purposes: comms

External: N2YO · Heavens-Above · Gunter

§ Orbital elements

Epoch: 2026-09-20T17:25:07.447296Z

Period
94.26 min
Inclination
42.9970°
Eccentricity
0.0002685
Mean motion
15.27625553 rev/d
Perigee alt
481.1 km
Apogee alt
484.8 km
Semi-major
6,861.0 km
B*
5.8579e-4
RAAN
56.2325°
Arg perigee
275.3991°
Mean anomaly
84.6554°
Rev number
7,529

§ Raw data

STARLINK-342121 64139U 25111S   26263.72578064  .00015916  00000+0  58579-3 0  99992 64139  42.9970  56.2325 0002685 275.3991  84.6554 15.27625553 75292

JSON: /api/v1/satellites/64139 · /tle

For live sub-satellite position, see the globe view (requires WebGL).

§ Visibility from observer

Set your observer location to see the next 7 days of passes ≥ 10°. The values pass through the URL so the page stays shareable.

No JS? Fill the form by hand. The geolocation button needs JavaScript.